Weather History for Palmdale - Butte, CA

Change the Weather History Date:

Thursday, May 9, 2013

  Actual Average (KPMD) Record (KPMD)
Temperature  
Mean Temperature 62 °F 66 °F  
Max Temperature 74 °F 81 °F 98 °F (2001)
Min Temperature 49 °F 51 °F 36 °F (1948)
Degree Days  
Heating Degree Days 4 3  
Month to date heating degree days 31  
Since 1 July heating degree days 2881  
Cooling Degree Days 0 3  
Month to date cooling degree days 23  
Year to date cooling degree days 46  
Growing Degree Days 12 (Base 50)    
Moisture  
Dew Point 41 °F    
Average Humidity 51    
Maximum Humidity 74    
Minimum Humidity 21    
Precipitation  
Precipitation 0.02 in 0.01 in 0.52 in (1977)
Month to date precipitation 0.11  
Year to date precipitation 5.09  
Since 1 July precipitation 8.07  
Snow  
Snow 0.00 in - 0.00 in (1973)
Month to date snowfall  
Since 1 July snowfall  
Snow Depth -    
Sea Level Pressure  
Sea Level Pressure 30.03 in    
Wind  
Wind Speed 6 mph (West)    
Max Wind Speed 15 mph    
Max Gust Speed 24 mph    
Visibility 10 miles    
Events Rain    
T = Trace of Precipitation, MM = Missing Value Source: NWS Daily Summary

Daily Weather History Graph

Daily Weather History Graph

Search for Another Location

Airport:

Trip Planner

Search our weather history database for the weather conditions in past years. The results will help you decide how hot, cold, wet, or windy it might be!

Date:

Astronomy

May. 09, 2013 Rise Set
Actual Time 5:52 AM PDT 7:42 PM PDT
Civil Twilight 5:25 AM PDT 8:09 PM PDT
Nautical Twilight 4:51 AM PDT 8:42 PM PDT
Astronomical Twilight 4:16 AM PDT 9:18 PM PDT
Moon 5:39 AM PDT (5/9) 7:41 PM PDT (5/9)
Length of Visible Light 14h 44m
Length of Day
13h 49m
Waning Crescent, 0% of the Moon is Illuminated
May 9
Waning Crescent
May 9
New
May 17
First Quarter
May 24
Full
May 31
Last Quarter

Hourly Weather History & Observations

Time (PDT) Temp. Dew Point Humidity Pressure Visibility Wind Dir Wind Speed Gust Speed Precip Events Conditions
12:55 AM 51.4 °F 37.9 °F 60% 30.05 in 10.0 mi WSW 2.3 mph - N/A   Clear
1:55 AM 52.2 °F 39.7 °F 63% 30.04 in 10.0 mi West 3.5 mph - N/A   Clear
2:55 AM 52.2 °F 39.0 °F 61% 30.03 in 10.0 mi WSW 6.9 mph - N/A   Clear
3:55 AM 51.8 °F 39.2 °F 62% 30.02 in 10.0 mi WSW 5.8 mph - N/A   Clear
4:55 AM 50.0 °F 39.4 °F 67% 30.02 in 10.0 mi SW 5.8 mph - N/A   Clear
5:55 AM 49.3 °F 39.4 °F 69% 30.04 in 10.0 mi SW 4.6 mph - N/A   Clear
6:55 AM 53.6 °F 40.8 °F 62% 30.05 in 10.0 mi SW 5.8 mph - N/A   Clear
7:55 AM 60.8 °F 42.1 °F 50% 30.05 in 10.0 mi West 6.9 mph - N/A   Partly Cloudy
8:55 AM 61.9 °F 42.4 °F 49% 30.06 in 10.0 mi WNW 9.2 mph - N/A   Clear
9:55 AM 65.1 °F 41.5 °F 42% 30.05 in 10.0 mi West 5.8 mph - N/A   Clear
10:55 AM 67.5 °F 39.7 °F 36% 30.04 in 10.0 mi WNW 6.9 mph - N/A   Partly Cloudy
11:55 AM 70.2 °F 37.2 °F 30% 30.04 in 10.0 mi Variable 2.3 mph - N/A   Partly Cloudy
12:55 PM 73.4 °F 35.2 °F 25% 30.01 in 10.0 mi North 5.8 mph 21.9 mph N/A   Partly Cloudy
1:55 PM 74.7 °F 32.9 °F 22% 29.99 in 10.0 mi WNW 11.5 mph 16.1 mph N/A   Partly Cloudy
2:55 PM 73.9 °F 31.3 °F 21% 29.98 in 10.0 mi Variable 5.8 mph - N/A   Scattered Clouds
3:55 PM 73.0 °F 33.4 °F 23% 29.97 in 10.0 mi NNW 9.2 mph 17.3 mph N/A   Mostly Cloudy
4:42 PM 71.6 °F 37.4 °F 29% 29.98 in 10.0 mi North 15.0 mph 24.2 mph N/A Rain Light Rain
4:55 PM 66.0 °F 37.2 °F 35% 30.01 in 9.0 mi Variable 4.6 mph - 0.00 in Rain Rain Showers
5:55 PM 59.7 °F 46.2 °F 61% 30.05 in 10.0 mi West 10.4 mph - 0.02 in Rain Light Rain Showers
6:07 PM 60.8 °F 46.4 °F 59% 30.06 in 10.0 mi West 11.5 mph 16.1 mph N/A   Scattered Clouds
6:55 PM 59.5 °F 49.8 °F 70% 30.07 in 10.0 mi WSW 10.4 mph - 0.00 in   Scattered Clouds
7:55 PM 58.6 °F 48.0 °F 68% 30.05 in 10.0 mi SW 9.2 mph - N/A   Mostly Cloudy
8:55 PM 58.6 °F 46.0 °F 63% 30.05 in 10.0 mi WSW 4.6 mph - N/A   Mostly Cloudy
9:55 PM 56.7 °F 47.3 °F 71% 30.07 in 10.0 mi WSW 3.5 mph - N/A   Clear
11:55 PM 54.9 °F 46.6 °F 74% 30.06 in 10.0 mi SW 5.8 mph - N/A   Clear